361  
ASUS43 KLSX 241107  
RWRMO  
 
WEATHER SUMMARY FOR MISSOURI  
NATIONAL WEATHER SERVICE SPRINGFIELD MO  
600 AM CDT FRI MAY 24 2019  
 
NOTE: "FAIR" INDICATES FEW OR NO CLOUDS BELOW 12,000 FEET WITH NO  
SIGNIFICANT WEATHER AND/OR S TO VISIBILITY
.  
CURRENT SKY AND/OR WEATHER CONDITIONS ARE NOT AVAILABLE FOR  
CHILLICOTHE AND FARMINGTON.  
 
MOZ001>031-035>038-043-044-053-054-241200-   
..NORTHERN AND WESTERN MISSOURI
 
 
 
CITY SKY/WX TMP DP RH WIND PRES REMARKS
 
KANSAS CTY INT CLOUDY 74 67 78 S16 29.92F  
KANSAS C DTWN CLOUDY 74 66 76 S9 29.92S  
LEE'S SUMMIT PTCLDY 72 66 81 S14G24 29.95R  
ST JOSEPH CLOUDY 67 62 84 N16G33 29.93R  
CHILLICOTHE N/A 70 67 90 S5 29.95S  
KIRKSVILLE MOCLDY 65 64 97 SE5 30.00R  
 

 
MOZ066>068-077>081-088>096-101>105-241200-   
..SOUTHWEST MISSOURI
 
 
 
CITY SKY/WX TMP DP RH WIND PRES REMARKS
 
SPRINGFIELD CLEAR 70 66 87 S10 30.05R  
JOPLIN MOCLDY 70 67 90 S8 30.01S  
BRANSON CLEAR 66 66 100 CALM 30.09R  
 

 
MOZ032>034-039>042-045>050-055>058-069>072-241200-   
..CENTRAL MISSOURI
 
 
 
CITY SKY/WX TMP DP RH WIND PRES REMARKS
 
COLUMBIA CLOUDY 69 67 93 S9 30.02S  
ROLLA PTCLDY 70 65 84 S8 30.06S  
SEDALIA CLOUDY 69 68 96 S12 30.01S  
WHITEMAN AFB CLOUDY 72 71 98 S13 29.94S  
WARRENSBURG CLOUDY 70 64 83 SE13 29.96S  
OSAGE BEACH CLOUDY 68 67 96 S6 30.04S  
 

 
MOZ051-052-059>065-241200-   
..EAST CENTRAL MISSOURI
 
 
 
CITY SKY/WX TMP DP RH WIND PRES REMARKS
 
ST LOUIS INTL MOCLDY 73 68 84 S6 30.05R  
SPIRIT OF STL CLOUDY 67 66 97 CALM 30.03S FOG  
ST CHARLES MOCLDY 68 67 96 E6 30.03S  
 

 
MOZ072>076-082>087-097>100-106>115-241200-   
..SOUTH CENTRAL AND SOUTHEAST MISSOURI
 
 
 
CITY SKY/WX TMP DP RH WIND PRES REMARKS
 
CAPE GIRARDEAU FAIR 66 64 93 CALM 30.09R  
FARMINGTON CLEAR 66 66 100 CALM 30.10R FOG  
POPLAR BLUFF FAIR 66 66 100 CALM 30.09R FOG  
WEST PLAINS CLEAR 70 66 87 S5 30.10R  
 

 
 
 
CLICK HERE TO GO TO PREVIOUS BULLETINS.

The Nexlab MO Page Main Text Page